Regional Weather Roundup
Issued by NWS

Home | Current Version | Previous Version | Text Only | Print | Product List | Glossary Off
Versions: 1 2 3 4 5 6 7 8 9 10 11 12 13 14 15 16 17 18 19 20 21 22 23 24 25 26 27 28 29 30 31 32 33 34 35 36 37 38 39 40 41 42 43 44 45 46 47 48 49 50

542
ASUS43 KDTX 251201
RWRMI
MICHIGAN HOURLY REGIONAL WEATHER ROUNDUP
NATIONAL WEATHER SERVICE DETROIT/PONTIAC MI
800 AM EDT WED MAY 25 2016

NOTE: "FAIR" INDICATES FEW OR NO CLOUDS BELOW 12,000 FEET WITH NO
SIGNIFICANT WEATHER AND/OR OBSTRUCTION TO VISIBILITY.

MIZ047>049-052>055-059>063-066>070-074>076-081>083-251300-
SOUTHEAST LOWER MICHIGAN

CITY           SKY/WX    TMP DP  RH WIND       PRES   REMARKS
ADRIAN         SUNNY     63  50  62 SW3       30.08R
6HR MIN TEMP:  58; 6HR MAX TEMP:  65;

ALMA           SUNNY     65  56  70 CALM      30.03S
ANN ARBOR      SUNNY     63  53  70 CALM      30.06S
BAD AXE        SUNNY     64  55  73 CALM      30.04R
CARO           PTSUNNY   64  56  74 CALM      30.03R
DETROIT CITY   SUNNY     68  49  50 SW5       30.05S
6HR MIN TEMP:  64; 6HR MAX TEMP:  70;

DETROIT        PTSUNNY   65  49  56 S7        30.07S
6HR MIN TEMP:  61; 6HR MAX TEMP:  65;

FLINT          SUNNY     71  54  54 SW8       30.04S
6HR MIN TEMP:  60; 6HR MAX TEMP:  71;

GROSSE ILE     MOSUNNY   64  54  68 S3        30.06S
HILLSDALE      SUNNY     66  49  55 CALM      30.07S
6HR MIN TEMP:  63; 6HR MAX TEMP:  68;

HOWELL         MOSUNNY   67  53  60 SW5       30.05S

CITY           SKY/WX    TMP DP  RH WIND       PRES   REMARKS
JACKSON        SUNNY     69  55  60 SW5       30.05S
6HR MIN TEMP:  63; 6HR MAX TEMP:  69;

LAMBERTVILLE   MOSUNNY   66  52  62 CALM      30.08S
6HR MIN TEMP:  62; 6HR MAX TEMP:  66;

LANSING        SUNNY     69  55  60 SW8       30.03F
6HR MIN TEMP:  64; 6HR MAX TEMP:  69;

LAPEER         FAIR      65  56  72 CALM      30.04F
6HR MIN TEMP:  54; 6HR MAX TEMP:  65;

MASON          SUNNY     67  55  64 S3        30.04F
MONROE         MOSUNNY   64  54  69 CALM      30.06F
6HR MIN TEMP:  56; 6HR MAX TEMP:  66;

PONTIAC        MOSUNNY   67  53  61 W5        30.05S
6HR MIN TEMP:  63; 6HR MAX TEMP:  69;

PORT HOPE        N/A     66  55  67 SE3       30.01S
6HR MIN TEMP:  58; 6HR MAX TEMP:  66;

PORT HURON     SUNNY     64  55  72 CALM      30.05R
TRI CITIES     SUNNY     69  53  56 SW8       30.03R
6HR MIN TEMP:  63; 6HR MAX TEMP:  72;

MIDLAND        FAIR      62  60  93 CALM      30.02S
6HR MIN TEMP:  56; 6HR MAX TEMP:  64;

TROY           SUNNY     67  50  54 SW3       30.07S
SAGINAW HB     SUNNY     68  52  56 SW7       30.02R
$$
MIZ043>046-050>051-056>058-064>065-071>073-077>080-251300-
SOUTHWEST LOWER MICHIGAN

CITY           SKY/WX    TMP DP  RH WIND       PRES   REMARKS
BATTLE CREEK   SUNNY     67  56  67 S7        30.05S
6HR MIN TEMP:  62; 6HR MAX TEMP:  67;

BENTON HARBOR  SUNNY     68  57  68 S5        30.02R
6HR MIN TEMP:  61; 6HR MAX TEMP:  72;

BIG RAPIDS     SUNNY     60  59  97 CALM      30.00F FOG
6HR MIN TEMP:  56; 6HR MAX TEMP:  63;

COLDWATER      SUNNY     66  56  71 SE3       30.05F
6HR MIN TEMP:  58; 6HR MAX TEMP:  67;

FREMONT        FAIR      64  58  81 CALM      30.00S
HOLLAND        MOSUNNY   71  60  68 S6        30.01S
6HR MIN TEMP:  66; 6HR MAX TEMP:  72;

GRAND RAPIDS   PTSUNNY   69  57  65 S3        30.02S
6HR MIN TEMP:  64; 6HR MAX TEMP:  71;

IONIA          FAIR      67  54  62 S5        30.02S
6HR MIN TEMP:  64; 6HR MAX TEMP:  69;

KALAMAZOO      SUNNY     67  55  65 S6        30.04F
6HR MIN TEMP:  63; 6HR MAX TEMP:  67;

LUDINGTON      CLOUDY    59  57  94 CALM      29.99S
6HR MIN TEMP:  51; 6HR MAX TEMP:  59;

MARSHALL       SUNNY     67  55  66 S5        30.04F
6HR MIN TEMP:  62; 6HR MAX TEMP:  68;

MOUNT PLEASANT SUNNY     62  60  95 CALM      30.01F
6HR MIN TEMP:  56; 6HR MAX TEMP:  64;

MUSKEGON       PTSUNNY   67  56  67 S6        30.00S
6HR MIN TEMP:  63; 6HR MAX TEMP:  67;

SOUTH HAVEN    SUNNY     68  58  69 S5        30.02R
$$
MIZ016>042-251300-
NORTHERN LOWER MICHIGAN

CITY           SKY/WX    TMP DP  RH WIND       PRES   REMARKS
ALPENA         FOG       56  55  97 W3        30.04S VSB 1
6HR MIN TEMP:  51; 6HR MAX TEMP:  57;

BEAVER ISLAND  FOG       55  55 100 NE5       30.04S VSB 1/2
6HR MIN TEMP:  50; 6HR MAX TEMP:  55;

BELLAIRE       FOG       55  54  97 CALM      30.02S VSB<1/4
6HR MIN TEMP:  51; 6HR MAX TEMP:  55;

CADILLAC       SUNNY     62  56  81 CALM      30.00F
CHARLEVOIX     FOG       55  55 100 CALM      30.06R VSB 1/4
FRANKFORT      SUNNY     60  55  84 NE3       30.00S
GAYLORD        FOG       56  55  97 NE7       30.04R VSB 1/4
6HR MIN TEMP:  50; 6HR MAX TEMP:  58;

GRAYLING       SUNNY     59  53  80 SE3       30.03S
HARBOR SPRINGS FOG       56  56  99 CALM      30.03S VSB 1/2
HOUGHTON LAKE  SUNNY     63  57  81 CALM      30.02F
6HR MIN TEMP:  51; 6HR MAX TEMP:  63;

MANISTEE       SUNNY     57  54  88 CALM      30.00F
OSCODA         MOSUNNY   63  53  71 N3        30.03S
6HR MIN TEMP:  56; 6HR MAX TEMP:  63;

PELLSTON       FOG       57  56  96 NE8       30.04S VSB 1/2
6HR MIN TEMP:  50; 6HR MAX TEMP:  57;

ROGERS CITY    FOG       55  53  94 N3        30.05S VSB 1/4
TRAVERSE CITY  PTSUNNY   56  53  90 CALM      30.01F FOG
6HR MIN TEMP:  50; 6HR MAX TEMP:  58;

$$
MIZ007>008-015-251300-
EASTERN UPPER MICHIGAN

CITY           SKY/WX    TMP DP  RH WIND       PRES   REMARKS
KINROSS          N/A     55  55 100 NE5       30.05S
6HR MIN TEMP:  54; 6HR MAX TEMP:  55;

MACKINAC ISLAN FOG       55  55 100 NE8       30.05S VSB 1/4
6HR MIN TEMP:  53; 6HR MAX TEMP:  56; 6HR PCP:  0.01;

NEWBERRY       FOG       51  51  97 N5        30.06S VSB 1/4
6HR MIN TEMP:  51; 6HR MAX TEMP:  53; 6HR PCP:  0.01;

S. S. MARIE    CLOUDY    56  53  90 NE5       30.05S
6HR MIN TEMP:  51; 6HR MAX TEMP:  57;

MUNISING         N/A     46  45  96 N7        30.07R
6HR MIN TEMP:  46; 6HR MAX TEMP:  47;

$$
MIZ004>006-011>014-085-251300-
CENTRAL UPPER MICHIGAN

CITY           SKY/WX    TMP DP  RH WIND       PRES   REMARKS
MANISTIQUE     FOG       53  52  97 N7        30.03F VSB 1/2
6HR MIN TEMP:  53; 6HR MAX TEMP:  57;

ESCANABA       CLOUDY    54  52  94 N6        30.03F
6HR MIN TEMP:  52; 6HR MAX TEMP:  57;

MENOMINEE      CLOUDY    55  54  96 NE6       30.04S FOG
6HR MIN TEMP:  54; 6HR MAX TEMP:  58;

SAWYER-GWINN   CLOUDY    48  46  93 NE3       30.06S
$$
MIZ001>003-009>011-084-251300-
WESTERN UPPER MICHIGAN

CITY           SKY/WX    TMP DP  RH WIND       PRES   REMARKS
IRON MOUNTAIN  CLOUDY    54  51  90 N7        30.03F
6HR MIN TEMP:  53; 6HR MAX TEMP:  61;

HOUGHTON       CLOUDY    48  45  89 E12       30.06F
6HR MIN TEMP:  48; 6HR MAX TEMP:  50;

COPPER HARBOR    N/A     43  43 100 CALM      30.09R
6HR MIN TEMP:  43; 6HR MAX TEMP:  49;

IRONWOOD       CLOUDY    54  54 100 E8        30.00R VSB 1/4
6HR MIN TEMP:  52; 6HR MAX TEMP:  55;

$$

ABBREVIATIONS USED IN REMARKS
   TC - TEMPERATURE IN CELSIUS
  WCI - WIND CHILL INDEX
   HX - HEAT INDEX
  VSB - VISIBILITY





USA.gov is the U.S. government's official web portal to all federal, state and local government web resources and services.